Regional Weather Roundup
Issued by NWS Northern Indiana

Home | Current Version | Previous Version | Text Only | Print | Product List | Glossary Off
Versions: 1 2 3 4 5 6 7 8 9 10 11 12 13 14 15 16 17 18 19 20 21 22 23 24 25 26 27 28 29 30 31 32 33 34 35 36 37 38 39 40 41 42 43 44 45 46 47 48 49 50

000
ASUS43 KIWX 280300
RWRIWX

KIWX WEATHER ROUNDUP
NATIONAL WEATHER SERVICE NORTHERN INDIANA
1100 PM EDT SAT MAY 27 2017

NOTE: "FAIR" INDICATES FEW OR NO CLOUDS BELOW 12,000 FEET WITH NO
SIGNIFICANT WEATHER AND/OR OBSTRUCTIONS TO VISIBILITY.

* THESE STATIONS ARE NOT UNDER NWS QUALITY CONTROL. THEY ALSO MAY NOT
  REPORT WEATHER SUCH AS PRECIPITATION OR FOG.

INZ001>027-280400-
NORTHERN INDIANA

CITY           SKY/WX    TMP DP  RH WIND       PRES   REMARKS
GARY*          PTCLDY    61  54  77 NE5       29.84S
MICHIGAN CITY* CLOUDY    54  54 100 CALM      29.85F
SOUTH BEND     CLOUDY    61  59  93 NE3       29.85R
GOSHEN         CLOUDY    65  59  81 SE6       29.84F
MONTICELLO*    CLOUDY    63  62  96 E3        29.81F
ANGOLA*        MOCLDY    64  55  72 E3        29.87F
FORT WAYNE     CLOUDY    65  60  84 E7        29.85F
PERU/GRISSOM   CLEAR     62  62 100 NE3       29.81F

$$
INZ028>050-280400-
CENTRAL INDIANA

CITY           SKY/WX    TMP DP  RH WIND       PRES   REMARKS
LAFAYETTE      MOCLDY    63  62  97 CALM      29.81F
KOKOMO*        CLOUDY    64  62  93 CALM      29.83F
MUNCIE*        CLOUDY    67  63  87 E5        29.83F
INDIANAPOLIS   CLOUDY    70  62  76 N5        29.83R

$$
MIZ043>046-050>051-056>058-064>065-071>073-077>080-280400-
SOUTHWEST LOWER MICHIGAN

CITY           SKY/WX    TMP DP  RH WIND       PRES   REMARKS
BATTLE CREEK   CLOUDY    65  59  81 SE6       29.87S
BENTON HARBOR  MOCLDY    56  53  90 CALM      29.84F
COLDWATER*     CLOUDY    64  58  82 SE5       29.88S
HILLSDALE*     CLOUDY    63  54  72 E5        29.88S
HOLLAND        CLOUDY    57  51  80 CALM      29.86S
GRAND RAPIDS   PTCLDY    66  57  72 W3        29.86R
KALAMAZOO      CLOUDY    65  58  78 SE3       29.86F
STURGIS*       CLOUDY    64  60  87 E8        29.85F
THREE RIVERS*  FAIR      65  60  83 E6        29.85F

$$
OHZ001>008-015>018-024>025-280400-
NORTHWEST OHIO

CITY           SKY/WX    TMP DP  RH WIND       PRES   REMARKS
DEFIANCE       CLOUDY    63  54  72 NE5       29.87F
FINDLAY        PTCLDY    65  51  60 E7        29.86F
TOLEDO EXPRESS CLOUDY    64  55  72 E6        29.87F
TOLEDO METCALF CLOUDY    65  55  70 E3        29.89S
LIMA           CLOUDY    63  58  83 E9        29.86F

$$
AND FOR LAKE MICHIGAN COASTAL AND OPEN LAKE BUOY OBSERVATIONS

STATION/POSITION TEMP    WIND        PRES    VSBY  WAVE
                 AIR SEA DIR/SP/G                  HT/PER
                 (F)     (DEG/KT/KT) (MB)    (MI)  (FT/S)
CALUMET HARBOR    57      70/  4/  6 1010.0R
MICHIGAN CITY     60      70/  6/  6   N/A
BURNS HARBOR      58      80/  6/  7 1010.8F
SOUTH LAKE BUOY   54 51   90/  4/  6 1010.9          0
4 MI NW BRIDGMAN  59 59   50/  4/  4 1010.8F         1
MICHIGAN CITY     57 56   80/  4/  6   N/A           0

$$
&&



USA.gov is the U.S. government's official web portal to all federal, state and local government web resources and services.